Location: Colebrook
(42.0017°N, 73.0973°W)
Time: 22:33:47
(UTC-04:00)

Envisat - Pass Details

Date: 03 October 2021
Orbit: 764 x 766 km, 98.2° (Epoch: 22 October)

Event Time Altitude Azimuth Distance (km) Brightness Sun altitude
Rises 05:01:17 0° 27° (NNE) 3,238 6.8 -21.2°
Reaches altitude 10° 05:04:05 10° 42° (NE) 2,307 6.2 -20.7°
Maximum altitude 05:08:02 23° 93° (E) 1,603 5.5 -20.0°
Drops below altitude 10° 05:11:58 10° 144° (SE) 2,294 5.7 -19.3°
Sets 05:14:43 0° 159° (SSE) 3,214 6.3 -18.8°
